Lone Rock, WI

2:10 AM CDT on May 26, 2018 (GMT -0500)
Tri-County Regional

Weather History for KLNR - August, 2013

Change the Weather History Date:

Sunday, August 11, 2013

  Actual Average Record
Temperature  
Mean Temperature 65 °F -  
Max Temperature 75 °F 78 °F 90 °F (2002)
Min Temperature 55 °F 56 °F 50 °F (2011)
Growing Degree Days 15 (Base 50)    
Moisture  
Dew Point 62 °F    
Average Humidity 86    
Maximum Humidity 97    
Minimum Humidity 69    
Precipitation  
Precipitation 0.16 in - - ()
Sea Level Pressure  
Sea Level Pressure 30.08 in    
Wind  
Wind Speed 2 mph (WSW)    
Max Wind Speed 8 mph    
Max Gust Speed -    
Visibility 7 miles    
Events Rain    
Averages and records for this station are not official NWS values.
T = Trace of Precipitation, MM = Missing Value Source: NWS Daily Summary

Daily Weather History Graph

Daily Weather History Graph

Search for Another Location

Airport or City:

Astronomy

Aug. 11, 2013 Rise Set
Actual Time 6:02 AM CDT 8:08 PM CDT
Civil Twilight 5:30 AM CDT 8:39 PM CDT
Nautical Twilight 4:52 AM CDT 9:18 PM CDT
Astronomical Twilight 4:10 AM CDT 10:00 PM CDT
Moon 11:00 AM CDT (8/11) 10:13 PM CDT (8/11)
Length of Visible Light 15h 09m
Length of Day
14h 06m
Waxing Crescent, 22% of the Moon is Illuminated
Aug 11
Waxing Crescent
Aug 14
First Quarter
Aug 20
Full
Aug 28
Last Quarter
Sep 5
New

Hourly Weather History & Observations

Time (CDT) Temp. Dew Point Humidity Pressure Visibility Wind Dir Wind Speed Gust Speed Precip Events Conditions
12:56 AM 55.9 °F 54.0 °F 93% 30.12 in 10.0 mi Calm Calm - N/A   Partly Cloudy
1:56 AM 55.0 °F 54.0 °F 96% 30.12 in 8.0 mi Calm Calm - N/A   Partly Cloudy
2:56 AM 55.9 °F 55.0 °F 97% 30.12 in 10.0 mi Calm Calm - N/A   Mostly Cloudy
3:56 AM 57.9 °F 55.9 °F 93% 30.13 in 10.0 mi West 3.5 mph - N/A   Overcast
4:56 AM 59.0 °F 57.0 °F 93% 30.12 in 8.0 mi Calm Calm - 0.01 in   Overcast
5:56 AM 61.0 °F 59.0 °F 93% 30.11 in 9.0 mi Calm Calm - 0.00 in   Overcast
6:56 AM 60.1 °F 57.9 °F 93% 30.12 in 5.0 mi Calm Calm - 0.01 in Rain Light Rain
7:40 AM 60.8 °F 57.2 °F 88% 30.16 in 1.8 mi West 3.5 mph - 0.02 in Rain Rain
7:56 AM 60.1 °F 59.0 °F 96% 30.13 in 0.8 mi Calm Calm - 0.10 in Rain Heavy Rain
8:06 AM 60.8 °F 59.0 °F 94% 30.13 in 1.5 mi East 5.8 mph - 0.03 in Rain Rain
8:15 AM 60.8 °F 59.0 °F 94% 30.14 in 3.0 mi Calm Calm - 0.03 in Rain Light Rain
8:45 AM 60.8 °F 59.0 °F 94% 30.12 in 6.0 mi East 6.9 mph - 0.04 in   Overcast
8:56 AM 61.0 °F 60.1 °F 97% 30.10 in 7.0 mi East 6.9 mph - 0.04 in   Overcast
9:56 AM 63.0 °F 61.0 °F 93% 30.09 in 10.0 mi ESE 4.6 mph - N/A   Overcast
10:56 AM 66.0 °F 63.0 °F 90% 30.09 in 10.0 mi SE 3.5 mph - N/A   Scattered Clouds
11:56 AM 69.1 °F 63.0 °F 81% 30.07 in 10.0 mi SSW 3.5 mph - N/A   Mostly Cloudy
12:56 PM 71.1 °F 64.0 °F 78% 30.05 in 10.0 mi Calm Calm - N/A   Overcast
1:56 PM 71.1 °F 64.0 °F 78% 30.05 in 10.0 mi Variable 5.8 mph - N/A   Overcast
2:43 PM 73.4 °F 64.4 °F 73% 30.07 in 8.0 mi WSW 8.1 mph - N/A   Overcast
2:56 PM 73.0 °F 64.0 °F 73% 30.05 in 8.0 mi West 5.8 mph - N/A   Overcast
3:56 PM 75.9 °F 64.9 °F 69% 30.04 in 9.0 mi West 6.9 mph - N/A   Mostly Cloudy
4:21 PM 73.4 °F 64.4 °F 73% 30.06 in 8.0 mi West 6.9 mph - N/A   Mostly Cloudy
4:34 PM 75.2 °F 64.4 °F 69% 30.06 in 8.0 mi West 6.9 mph - N/A   Overcast
4:56 PM 73.9 °F 64.9 °F 73% 30.04 in 8.0 mi WSW 5.8 mph - N/A   Overcast
5:56 PM 73.9 °F 66.0 °F 76% 30.03 in 8.0 mi NNW 3.5 mph - N/A   Overcast
6:56 PM 73.0 °F 64.9 °F 76% 30.02 in 8.0 mi Calm Calm - N/A   Overcast
7:56 PM 72.0 °F 64.9 °F 78% 30.01 in 7.0 mi Calm Calm - N/A   Overcast
8:56 PM 69.1 °F 66.0 °F 90% 30.02 in 7.0 mi Calm Calm - N/A   Mostly Cloudy
9:56 PM 70.0 °F 66.0 °F 87% 30.02 in 7.0 mi Calm Calm - N/A   Overcast
10:56 PM 68.0 °F 66.0 °F 93% 30.03 in 6.0 mi Calm Calm - N/A   Overcast
11:56 PM 66.9 °F 64.9 °F 93% 30.03 in 4.0 mi Calm Calm - 0.00 in   Scattered Clouds